If you wish to contribute or participate in the discussions about articles you are invited to join SKYbrary as a registered user

 Actions

Annaba/Rabah Bitat

From SKYbrary Wiki

DABB
Airport
ICAO: DABB
Summary
Name Annaba/Rabah Bitat
Region Africa
Territory Algeria DZ.gif
Location Annaba
Serving
Coordinates 36° 49' 20.00" N, 7° 48' 34.00" E
Runways
Designator Length Width Surface ROPS
1/19 3000 m9,842.52 ft
45 m147.638 ft
ASP yes/yes
5/23 2290 m7,513.123 ft
45 m147.638 ft
ASP yes/yes


METAR
Observation DABB 251330Z 02018KT CAVOK 30/20 Q1014
Station Annaba
Date/Time 25 June 2019 13:30:00
Wind direction 20°
Wind speed 18 kts
Lowest cloud amount clouds and visibility OK
Temperature 30°C
Dew point 20°C
Humidity 55%
QNH 1014 hPa
Weather condition n/a

Annaba/Rabah Bitat Airport

ICAO: DABB IATA: AAE

Description

Rabah Bitat Airport, formerly known as Les Salines Airport, and popularly as El Mellah Airport is an international airport located 9 km south of Annaba, a city in Algeria.

Climatology

Maps

Terrain

Loading map...

Airport Layout

Loading map...


Accidents & Serious Incidents at or in vicinity of DABB

None on SKYbrary